Regional Weather Roundup
Issued by NWS Wilmington, NC

Home | Current Version | Previous Version | Text Only | Print | Product List | Glossary On
Versions: 1 2 3 4 5 6 7 8 9 10 11 12 13 14 15 16 17 18 19 20 21 22 23 24 25 26 27 28 29 30 31 32 33 34 35 36 37 38 39 40 41 42 43 44 45 46 47 48 49 50
000
ASUS42 KILM 270913
RWRILM
RWRILM
REGIONAL HOURLY WEATHER ROUNDUP
NATIONAL WEATHER SERVICE WILMINGTON NC
500 AM EDT SAT MAY 27 2017

NOTE: "FAIR" INDICATES FEW OR NO CLOUDS BELOW 12,000 FEET WITH NO
SIGNIFICANT WEATHER AND/OR OBSTRUCTIONS TO VISIBILITY.

...............WFO WILMINGTON COUNTY WARNING AREA...............

......COASTAL NC AND SC COUNTIES......

CITY           SKY/WX    TMP DP  RH WIND       PRES   REMARKS
WILMINGTON     CLEAR     63  61  93 CALM      29.97S
N MYRTLE BEACH CLEAR     67  58  72 W3        29.97F
MYRTLE BEACH   NOT AVBL

......INLAND NC AND SC COUNTIES.......

CITY           SKY/WX    TMP DP  RH WIND       PRES   REMARKS
LUMBERTON      CLEAR     63  60  90 CALM      29.96S
ELIZABETHTOWN  CLEAR     63  58  83 CALM      29.97S
WHITEVILLE     CLEAR     62  58  90 CALM      29.97S
FLORENCE       CLEAR     63  58  83 CALM      29.97F
DARLINGTON     CLEAR     63  59  87 SW6       29.97S
KINGSTREE      NOT AVBL
HARTSVILLE     FAIR      59  55  88 CALM      29.97S
BENNETTSVILLE  FAIR      63  61  94 CALM      29.96S
CONWAY         FAIR      57  55  94 CALM      29.98F
GEORGETOWN     FAIR      61  59  94 SW5       30.00F
MARION         NOT AVBL

....................REST OF NORTH CAROLINA......................

.........EASTERN NC.........

CITY           SKY/WX    TMP DP  RH WIND       PRES   REMARKS
CAPE HATTERAS  CLEAR     71  67  87 W6        29.94S
JACKSONVILLE   CLEAR     59  58  96 S3        29.97S
MOREHEAD CITY  CLEAR     71  65  81 W5        29.95S
KENANSVILLE    CLEAR     57  57 100 CALM      29.96S
NEW BERN       CLEAR     63  60  90 SW5       29.97S
ELIZABETH CITY CLEAR     63  60  90 SW7       29.92S

.........CENTRAL NC.........

CITY           SKY/WX    TMP DP  RH WIND       PRES   REMARKS
RALEIGH DURHAM PTCLDY    62  58  86 CALM      29.96S
ROCKY MOUNT    CLEAR     62  59  90 S5        29.94S
ROANOKE RAPIDS NOT AVBL
FAYETTEVILLE   CLEAR     65  59  81 SW3       29.96S
HOFFMAN        PTCLDY    59  58  96 CALM      29.97R

.........WESTERN NC.........

CITY           SKY/WX    TMP DP  RH WIND       PRES   REMARKS
CHARLOTTE      PTCLDY    65  58  78 CALM      29.98F
GREENSBORO     PTCLDY    61  59  93 S3        29.95F
HICKORY        NOT AVBL
BOONE          NOT AVBL
ASHEVILLE      NOT AVBL

.....................REST OF SOUTH CAROLINA.....................

.........EASTERN SC.........

CITY           SKY/WX    TMP DP  RH WIND       PRES   REMARKS
CHARLESTON     PTCLDY    65  58  78 SW5       30.00S
BEAUFORT MCAS  CLEAR     65  62  90 SW5       30.01S
HILTON HEAD    NOT AVBL

.........CENTRAL SC.........

CITY           SKY/WX    TMP DP  RH WIND       PRES   REMARKS
COLUMBIA       CLEAR     66  59  78 W6        29.97F
ORANGEBURG     CLEAR     62  60  93 CALM      29.99F
SUMTER SHAW    CLEAR     67  59  76 W5        29.95F

.........WESTERN SC.........

CITY           SKY/WX    TMP DP  RH WIND       PRES   REMARKS
GREENVILLE     NOT AVBL
ROCK HILL      CLEAR     65  59  81 CALM      29.98S
ANDERSON       PTCLDY    64  61  90 CALM      29.99F
CLEMSON        NOT AVBL
GREENWOOD      CLEAR     64  59  83 SW5       30.01S


...................COASTAL AND OFFSHORE REPORTS..................

................LOCAL PIERS AND NC RESERVE................


STATION/POSITION TIME  SKY/WX   TEMP    WIND        PRES    VSBY
                                AIR SEA DIR/SP/G
                 (UTC)          (F)     (DEG/KT/KT) (MB)    (MI)
JOHNY MRCER PIER 0848            69 74  250/  5/  7 1013.8S
NC RESRV MASNBRO 0745            67     260/  1     1016.0
OCEAN CREST PIER NOT AVBL
SPRINGMAID  PIER 0842                               1014.4F


................COASTAL AND OFFSHORE BUOYS................


STATION/POSITION TIME  SKY/WX   TEMP    WIND        PRES    VSBY
                                AIR SEA DIR/SP/G
                 (UTC)          (F)     (DEG/KT/KT) (MB)    (MI)
DIMNDSHOAL 41025 0850            75 77  250/ 12/ 12 1013.8F
WVE H/P(F/S)=  5/ 7 SWL H/P/D(F/S/D)=  5/200/ 7

CAPE LOOKOUT     0900            72     260/  7/  9 1014.1R
ONSLOW BAY 41036 NOT AVBL
ONSLOW BAY 41064 0808            75 78  270/ 14/ 17 1014.5F
ONSLOW BAY 41159 0843               78                N/A
WVE H/P(F/S)=  4/ 6

MASNBO INL 41110 0859               74                N/A
WVE H/P(F/S)=  2/ 7

WILM HARBR 41108 0847               75                N/A
WVE H/P(F/S)=  3/ 5

27SE WRITB 41037 0808            74 76  240/ 12/ 16 1014.0S
FRYING PAN 41013 0900            74 74  240/ 14/ 16 1015.0
SUNST NRSH 41024 0808            73 74  270/  4/  6 1014.9F
CAPRS NRSH 41029 0808            78 76  260/ 10/ 14 1015.8F
EDISTO     41004 0850            74 74  240/ 10/ 14 1015.8S
WVE H/P(F/S)=  3/ 7 SWL H/P/D(F/S/D)=  2/140/ 7



..........OFFSHORE BUOYS BEYOND 100 NM OFFSHORE...........
.....IN A TRIANGLE---HAT TO BERMUDA TO BAHAMAS TO HAT.....


STATION/POSITION TIME  SKY/WX   TEMP    WIND        PRES    VSBY
                                AIR SEA DIR/SP/G
                 (UTC)          (F)     (DEG/KT/KT) (MB)    (MI)
150E HAT   41001 0900            76 77  280/ 14/ 17 1014.0
W BERMUDA  41048 0900            75 75  280/ 10/ 14 1016.3
ATLANTIC S 41049 0850            75 77  180/  6/  8 1019.9R
WVE H/P(F/S)=  3/ 8 SWL H/P/D(F/S/D)=  3/150/ 8

E BAHAMAS  41046 0850            78 80  120/  8/ 10 1018.5S
WVE H/P(F/S)=  3/ 7 SWL H/P/D(F/S/D)=  3/130/ 7

NE BAHAMAS 41047 0850            78 78  240/  8/ 10 1017.6R
WVE H/P(F/S)=  4/ 8 SWL H/P/D(F/S/D)=  5/270/ 8

120E CANVRL41010 0850            77 79  220/  6/  8 1017.3S
WVE H/P(F/S)=  2/ 7 SWL H/P/D(F/S/D)=  2/ 80/ 7


END



USA.gov is the U.S. government's official web portal to all federal, state and local government web resources and services.